www.pogodaiklimat.ru

Погода и климат >> Архив погоды >> Россия >> Якутия >> Покровск


ПОГОДА в Покровске

  • Прогноз погоды в Покровске
  • Монитор погоды в Покровске
  • Климат города

АРХИВ ПОГОДЫ в Покровске

Время (UTC), дата Ветер
(напр.,м/с)
 
Видим.   Явления Облачность Т
(С)
Тd
(С)
f
(%)
Тe
(С)
Тes
(С)
Комфортность P
(гПа)
Po
(гПа)
Тmin
(С)
Tmax
(С)
R
(мм)
S
(см)
15 14.02 ЮЗ 1 20 км ясно -34.9 -37.1 80 -40 -40 опасность
обморожения
1029.7 1012.1
18 14.02 З 1 20 км ясно -36.7 -38.8 81 -42 -42 опасность
обморожения
1029.5 1011.8
21 14.02 З 2 20 км 3/0
[As trans]
-35.6 -37.7 81 -44 -44 опасность
обморожения
1028.7 1011.0
00 15.02 З 1 20 км 10/0
[Ci sp]
-37.0 -39.1 81 -42 -42 опасность
обморожения
1028.5 1010.6 -37.0 24
03 15.02 Ю 1 50 км 10/0
[Ci fib]
-28.7 -31.2 79 -33 -31 опасность
обморожения
1026.8 1009.7
06 15.02 ЮЗ 1 20 км 10/0
[Cs]
-24.0 -27.2 75 -27 -27 1025.8 1009.0
09 15.02 штиль 0 50 км 6/0
[Ci fib]
-28.1 -30.5 80 -28 -28 1026.0 1008.9
12 15.02 З 1 20 км ясно -35.3 -37.7 79 -40 -40 опасность
обморожения
1026.6 1008.9 -23.0
15 15.02 ЮЗ 2 20 км ясно -37.8 -39.9 81 -47 -47 опасность
обморожения
1026.6 1008.7
18 15.02 ЮЗ 1 4000 м дымка ясно -40.4 -42.7 78 -46 -46 опасность
обморожения
1026.7 1008.7
21 15.02 З 2 4000 м дымка ясно -41.8 -43.8 81 -51 -51 опасность
обморожения
1027.0 1008.8
00 16.02 З 1 4000 м дымка ясно -42.2 -44.4 79 -48 -47 опасность
обморожения
1027.6 1009.4 -42.2 24
03 16.02 ЮЗ 3 10 км дымка ясно -32.7 -35.1 79 -43 -41 опасность
обморожения
1027.2 1009.8
06 16.02 ЮЗ 2 10 км слабый снег ясно -29.3 -31.8 79 -37 -36 опасность
обморожения
1027.4 1010.1
09 16.02 З 2 10 км {снег} ясно -31.7 -34.1 79 -39 -39 опасность
обморожения
1028.3 1010.9
12 16.02 З 3 10 км ясно -36.5 -38.8 79 -47 -47 опасность
обморожения
1029.6 1011.9 -29.3
15 16.02 З 2 10 км ясно -38.0 -40.3 79 -47 -47 опасность
обморожения
1029.9 1012.0
18 16.02 З 2 10 км ясно -39.0 -41.2 79 -48 -48 опасность
обморожения
1030.1 1012.1
21 16.02 З 2 10 км дымка ясно -41.8 -43.8 81 -51 -51 опасность
обморожения
1030.3 1012.1
00 17.02 З 2 4000 м дымка 4/0
[Ci fib]
-38.3 -40.3 81 -47 -47 опасность
обморожения
1029.9 1012.0 -42.1 24
03 17.02 ЮЗ 4 10 км дымка 10/0
[Cs]
-30.2 -32.6 79 -41 -40 опасность
обморожения
1029.1 1011.8
06 17.02 ЮЗ 4 50 км позёмок {метель} 10/0
[Ci fib]
-26.7 -29.2 79 -37 -37 опасность
обморожения
1027.7 1010.7
09 17.02 З 2 50 км {метель} 6/0
[Ci fib]
-28.8 -31.2 80 -36 -36 опасность
обморожения
1027.4 1010.2
12 17.02 З 2 20 км {метель} 5/0
[Ci fib]
-36.0 -38.4 78 -44 -44 опасность
обморожения
1027.4 1009.7 -26.2
15 17.02 З 2 10 км дымка 4/0
[Ci fib]
-39.0 -41.2 79 -48 -48 опасность
обморожения
1026.6 1008.6
18 17.02 З 1 10 км дымка ясно -40.6 -42.7 80 -46 -46 опасность
обморожения
1025.3 1007.4
21 17.02 З 1 10 км дымка ясно -42.2 -44.4 79 -48 -48 опасность
обморожения
1024.8 1006.7
00 18.02 З 1 4000 м дымка 4/0
[Ci fib]
-42.5 -44.4 81 -48 -48 опасность
обморожения
1023.9 1005.8 -43.4 24
03 18.02 В 1 50 км 4/0
[Ci fib]
-34.6 -36.8 80 -39 -37 опасность
обморожения
1022.3 1004.8
06 18.02 СВ 2 50 км 3/0
[Ci fib]
-30.9 -33.2 80 -39 -38 опасность
обморожения
1021.1 1003.9
09 18.02 СВ 2 50 км 3/0
[Ci fib]
-31.2 -33.6 79 -39 -39 опасность
обморожения
1020.3 1003.0
12 18.02 СВ 2 20 км ясно -33.6 -35.9 80 -42 -42 опасность
обморожения
1020.4 1002.9 -26.4
15 18.02 штиль 0 10 км дымка ясно -39.4 -41.7 79 -39 -39 опасность
обморожения
1019.8 1002.0
18 18.02 штиль 0 10 км дымка ясно -41.3 -43.2 82 -41 -41 опасность
обморожения
1020.1 1002.1
21 18.02 ЮЗ 1 10 км дымка ясно -42.1 -44.4 78 -48 -48 опасность
обморожения
1020.0 1002.0
00 19.02 З 1 4000 м дымка 4/0
[Ci fib]
-42.1 -44.4 78 -48 -47 опасность
обморожения
1020.7 1002.5 -43.3 24
03 19.02 В 1 20 км 3/0
[Ci fib]
-34.4 -36.8 79 -39 -37 опасность
обморожения
1019.5 1002.1
06 19.02 СВ 2 50 км 8/0
[Ci fib]
-31.8 -34.8 75 -40 -39 опасность
обморожения
1018.8 1001.6
09 19.02 С 2 50 км 4/0
[Ci fib]
-32.0 -35.0 75 -40 -40 опасность
обморожения
1018.8 1001.6
12 19.02 С 1 20 км ясно -37.0 -39.8 75 -42 -42 опасность
обморожения
1019.1 1001.4 -31.4
15 19.02 штиль 0 20 км слабый снег 10/0
[Cs]
-35.6 -37.7 81 -36 -36 опасность
обморожения
1018.3 1000.8
21 19.02 З 1 4000 м дымка ясно -39.6 -41.7 80 -45 -45 опасность
обморожения
1017.8 1000.0
00 20.02 штиль 0 20 км слабый снег 10/0
[Cs]
-35.1 -37.4 79 -35 -35 опасность
обморожения
1017.3 999.8 -39.6 0.0 24
03 20.02 В 2 20 км {снег} 4/0
[Ci fib]
-30.9 -32.6 85 -39 -37 опасность
обморожения
1016.4 999.3
06 20.02 ЮЗ 1 20 км {снег} 10/0
[Cs]
-26.4 -39.6 81 -30 -29 1015.9 999.1
09 20.02 СВ 2 20 км слабый снег 10/0
[Cs]
-27.2 -30.3 75 -34 -34 опасность
обморожения
1017.1 1000.1
12 20.02 С 1 20 км {снег} 4/0
[Ci fib]
-28.3 -31.3 75 -32 -32 опасность
обморожения
1017.7 1000.7 -24.5 0.7
15 20.02 З 1 20 км ясно -32.7 +35.1 100 -37 -37 опасность
обморожения
1018.1 1000.9
18 20.02 З 2 20 км ясно -36.3 -38.4 81 -45 -45 опасность
обморожения
1018.9 1001.4
21 20.02 З 1 20 км ясно -37.4 -39.1 84 -42 -42 опасность
обморожения
1020.4 1002.6
00 21.02 ЮЗ 2 20 км дымка 4/0
[Ci fib]
-38.5 -40.8 79 -47 -47 опасность
обморожения
1021.4 1003.6 -38.5 24
03 21.02 штиль 0 20 км слабый снег 10/0
[Cs]
-26.5 -29.0 79 -27 -24 1021.0 1004.1
06 21.02 ЮЗ 2 20 км слабый снег 10/0
[Cs]
-24.6 -27.9 74 -31 -30 опасность
обморожения
1021.0 1004.2
09 21.02 С 2 20 км {снег} 10/0
[Cs]
-29.5 -32.0 79 -37 -37 опасность
обморожения
1022.4 1005.2

 

Местоположение метеостанции Покровск (Якутия, Россия): широта 61.48 долгота 129.10 высота над уровнем моря 121 м.

В архиве по умолчанию представлена погода в Покровске за последнюю неделю. Архивные данные за месяц целиком и за предыдущие месяцы, начиная с января 2011 года, Вы можете получить, выбрав интересующий диапазон дат из раскрывающегося списка и нажав кнопку "Ввод!".

Внимание! Время в таблицах - всемирное. Для получения местного времени необходимо прибавить поправку, которая в Покровске равна 9 ч.

Смотрите также архив погоды в соседних городах и на ближайших метеорологических станциях:

Погода в Якутске (Якутия, Россия) (64 км)
Погода в Тегюльте (Якутия, Россия) (122 км)
Погода в Намцах (Якутия, Россия) (140 км)
Погода в Бердигестяхе (Якутия, Россия) (141 км)
Погода в Амге (Якутия, Россия) (163 км)
Погода в Чурапче (Якутия, Россия) (194 км)
Погода в Исите (Якутия, Россия) (217 км)
Погода в Батамае (Якутия, Россия) (227 км)
Погода в Буяге (Якутия, Россия) (232 км)
Погода в Тонгулахе (Якутия, Россия) (247 км)

Пояснения к столбцам:

Ветер - указаны скорость ветра в м/с - средняя за 10 мин, порывы в срок и между сроками (в фигурных скобках) и направление, откуда дует ветер: С - северный, СВ - северо-восточный, В - восточный, ЮВ - юго-восточный, Ю - южный, ЮЗ - юго-западный, З - западный, СЗ - северо-западный.
Видимость - горизонтальная дальность видимости в метрах или километрах. При видимости от 1 до 10 км при отсутствии осадков обычно наблюдается дымка, при ухудшении видимости до 1 км и менее - туман. В сухую погоду видимость может ухудшаться дымом, пылью или мглою.
Явления - указаны атмосферные явления, наблюдавшиеся в срок или в последний час перед сроком; фигурными скобками обозначены явления, наблюдавшиеся между сроками (за 1-3 часа до срока); квадратными скобками обозначены град или гололедные отложения с указанием их диаметра в мм.
Облачность - указаны через наклонную черту общая и нижняя облачность в баллах и высота нижней границы облаков в метрах; квадратными скобками обозначены формы облаков: Ci - перистые, Cs - перисто-слоистые, Cc - перисто-кучевые, Ac - высококучевые, As - высокослоистые, Sc - слоисто-кучевые, Ns - слоисто-дождевые, Cu - кучевые, Cb - кучево-дождевые. Подробнее классификацию облаков см. в Атласе облаков (PDF).
T - Температура воздуха - температура, измеренная на высоте 2 м над землей.
Td - Температура точки росы - температура, при понижении до которой содержащийся в воздухе водяной пар достигнет насыщения.
f - Относительная влажность воздуха - влажноcть воздуха, измеренная на высоте 2 м над землей.
Te - Эффективная температура - температура, которую ощущает одетый по сезону человек в тени. Характеристика душности погоды. При расчете учитывается влияние влажности воздуха и скорости ветра на теплоощущения человека.
Tes - Эффективная температура на солнце - температура, которую ощущает человек, с поправкой на солнечный нагрев. Характеристика знойности погоды. Зависит от высоты солнца над горизонтом, облачности и скорости ветра. Ночью, в пасмурную погоду, а также при ветре 12 м/с и более поправка равна нулю.
P - Атмосферное давление - приведенное к уровню моря атмосферное давление.
Po - Атмосферное давление - измеренное на уровне метеостанции атмосферное давление.
Tmin - Минимальная температура - минимум температуры воздуха на высоте 2 м над землей.
Tmax - Максимальная температура - максимум температуры воздуха на высоте 2 м над землей.
R - Количество осадков - Количество выпавших осадков, мм. При наведении курсора мыши на число - период времени, за который выпало указанное количество осадков.
S - Снежный покров - Высота снежного покрова, см. При наведении курсора мыши на число - состояние снежного покрова и степень покрытия местности в баллах.